{"data":{"norad_id":52493,"intl_designator":"2022-049AU","name":"STARLINK-3883","alt_names":[],"object_type":"PAYLOAD","status":"ACTIVE","operator":null,"country":"US","launch_date":"2022-05-06","launch_site_code":"AFETR","launch_vehicle":null,"mission":null,"orbit_class":"UNKNOWN","rcs_meters":null,"size_class":null,"mass_kg":null,"dimensions":null,"purposes":["comms"],"wikipedia_slug":null,"has_3d_model":false,"image_url":null,"decayed_at":null,"tle_current":{"epoch":"2026-05-25T01:46:20.453376Z","epoch_age_seconds":79203,"freshness":"FRESH","line1":"1 52493U 22049AU  26145.07384784 -.00000344  00000+0 -35449-5 0  9991","line2":"2 52493  53.2145  66.2178 0001552  89.2948 270.8222 15.08840201223928","mean_motion":15.08840201,"eccentricity":0.0001552,"inclination_deg":53.2145,"raan_deg":66.2178,"arg_perigee_deg":89.2948,"mean_anomaly_deg":270.8222,"bstar":-3.5449e-6,"rev_number":22392,"period_min":95.437541964061,"perigee_km":538.66911964657,"apogee_km":540.8164295286,"semimajor_km":6917.8797745876,"source":"CELESTRAK","updated_at":"2026-05-25T13:38:17.158492Z"}}}